Morristown, NJ

11:30 PM EDT on June 20, 2018 (GMT -0400)
Morristown Municipal

Weather History for KMMU - October, 2017

Change the Weather History Date:

Sunday, October 22, 2017

  Actual Average Record
Temperature  
Mean Temperature 56 °F -  
Max Temperature 75 °F 63 °F 83 °F (1949)
Min Temperature 37 °F 36 °F 16 °F (1940)
Degree Days  
Heating Degree Days 9    
Growing Degree Days 6 (Base 50)    
Moisture  
Dew Point 43 °F    
Average Humidity 85    
Maximum Humidity 100    
Minimum Humidity 34    
Precipitation  
Precipitation 0.00 in - - ()
Sea Level Pressure  
Sea Level Pressure 30.38 in    
Wind  
Wind Speed 1 mph (South)    
Max Wind Speed 7 mph    
Max Gust Speed -    
Visibility 7 miles    
Events Fog    
Averages and records for this station are not official NWS values.
T = Trace of Precipitation, MM = Missing Value Source: NWS Daily Summary

Daily Weather History Graph

Daily Weather History Graph

Search for Another Location

Airport or City:

Astronomy

Oct. 22, 2017 Rise Set
Actual Time 7:16 AM EDT 6:06 PM EDT
Civil Twilight 6:48 AM EDT 6:34 PM EDT
Nautical Twilight 6:16 AM EDT 7:06 PM EDT
Astronomical Twilight 5:45 AM EDT 7:38 PM EDT
Moon 9:48 AM EDT (10/22) 8:12 PM EDT (10/22)
Length of Visible Light 11h 45m
Length of Day
10h 49m
Waxing Crescent, 8% of the Moon is Illuminated
Oct 22
Waxing Crescent
Oct 27
First Quarter
Nov 4
Full
Nov 10
Last Quarter
Nov 18
New

Hourly Weather History & Observations

Time (EDT) Temp. Dew Point Humidity Pressure Visibility Wind Dir Wind Speed Gust Speed Precip Events Conditions
12:15 AM 42.8 °F 41.0 °F 93% 30.37 in 2.0 mi Calm Calm - N/A   Clear
12:35 AM 41.0 °F 41.0 °F 100% 30.37 in 1.2 mi Calm Calm - N/A   Scattered Clouds
12:55 AM 41.0 °F 41.0 °F 100% 30.37 in 1.8 mi Calm Calm - N/A   Scattered Clouds
1:15 AM 41.0 °F 39.2 °F 93% 30.37 in 10.0 mi Calm Calm - N/A   Clear
1:55 AM 39.2 °F 39.2 °F 100% 30.37 in 0.5 mi Calm Calm - N/A Fog Fog
2:15 AM 41.0 °F 39.2 °F 93% 30.36 in 10.0 mi Calm Calm - N/A   Scattered Clouds
2:35 AM 39.2 °F 39.2 °F 100% 30.37 in 10.0 mi Calm Calm - N/A   Clear
2:55 AM 39.2 °F 37.4 °F 93% 30.37 in 1.5 mi Calm Calm - N/A   Mist
3:15 AM 39.2 °F 39.2 °F 100% 30.37 in 0.8 mi Calm Calm - N/A   Mist
3:35 AM 37.4 °F 37.4 °F 100% 30.36 in 10.0 mi Calm Calm - N/A   Clear
3:55 AM 39.2 °F 39.2 °F 100% 30.37 in 0.5 mi Calm Calm - N/A Fog Fog
4:15 AM 37.4 °F 37.4 °F 100% 30.36 in 10.0 mi Calm Calm - N/A   Scattered Clouds
4:35 AM 37.4 °F 37.4 °F 100% 30.37 in 0.8 mi Calm Calm - N/A   Mist
4:55 AM 37.4 °F 37.4 °F 100% 30.37 in 7.0 mi Calm Calm - N/A   Scattered Clouds
5:15 AM 39.2 °F 39.2 °F 100% 30.38 in 10.0 mi Calm Calm - N/A   Scattered Clouds
5:35 AM 37.4 °F 37.4 °F 100% 30.38 in 10.0 mi Calm Calm - N/A   Clear
5:55 AM 37.4 °F 37.4 °F 100% 30.39 in 0.8 mi Calm Calm - N/A   Mostly Cloudy
6:15 AM 37.4 °F 37.4 °F 100% 30.39 in 3.0 mi Calm Calm - N/A   Scattered Clouds
6:35 AM 37.4 °F 37.4 °F 100% 30.39 in 10.0 mi Calm Calm - N/A   Clear
6:45 AM 39.2 °F 39.2 °F 100% 30.40 in 10.0 mi Calm Calm - N/A Fog Shallow Fog
7:45 AM 41.0 °F 39.2 °F 93% 30.42 in 10.0 mi Calm Calm - N/A Fog Shallow Fog
8:45 AM 46.4 °F 44.6 °F 93% 30.44 in 10.0 mi Calm Calm - N/A   Mostly Cloudy
9:45 AM 53.6 °F 48.2 °F 82% 30.43 in 10.0 mi Calm Calm - N/A   Mostly Cloudy
10:45 AM 62.6 °F 48.2 °F 59% 30.42 in 10.0 mi Calm Calm - N/A   Mostly Cloudy
11:45 AM 71.6 °F 48.2 °F 43% 30.41 in 10.0 mi SSW 3.5 mph - N/A   Scattered Clouds
12:45 PM 75.2 °F 44.6 °F 34% 30.39 in 10.0 mi South 6.9 mph - N/A   Partly Cloudy
1:45 PM 75.2 °F 44.6 °F 34% 30.37 in 10.0 mi SSW 5.8 mph - N/A   Partly Cloudy
2:45 PM 75.2 °F 44.6 °F 34% 30.34 in 10.0 mi South 5.8 mph - N/A   Scattered Clouds
3:45 PM 75.2 °F 44.6 °F 34% 30.34 in 10.0 mi South 6.9 mph - N/A   Scattered Clouds
4:45 PM 75.2 °F 46.4 °F 36% 30.34 in 10.0 mi South 5.8 mph - N/A   Scattered Clouds
5:45 PM 69.8 °F 50.0 °F 49% 30.34 in 10.0 mi SSE 5.8 mph - N/A   Scattered Clouds
6:45 PM 62.6 °F 51.8 °F 68% 30.34 in 10.0 mi ESE 3.5 mph - N/A   Clear
7:45 PM 53.6 °F 50.0 °F 88% 30.37 in 10.0 mi Calm Calm - N/A   Clear
8:45 PM 53.6 °F 51.8 °F 94% 30.38 in 10.0 mi Calm Calm - N/A   Clear
9:45 PM 53.6 °F 51.8 °F 94% 30.39 in 10.0 mi Calm Calm - N/A   Clear
10:35 PM 50.0 °F 48.2 °F 94% 30.38 in 10.0 mi Calm Calm - N/A   Clear
10:55 PM 46.4 °F 46.4 °F 100% 30.38 in 10.0 mi Calm Calm - N/A   Clear
11:10 PM 48.2 °F 48.2 °F 100% 30.38 in 10.0 mi Calm Calm - N/A   Clear
11:35 PM 46.4 °F 44.6 °F 93% 30.38 in 1.2 mi Calm Calm - N/A   Scattered Clouds
11:55 PM 46.4 °F 46.4 °F 100% 30.38 in 0.5 mi Calm Calm - N/A Fog Fog